Miscellaneous Local Product
Issued by NWS North Platte, NE

Home | Current Version | Previous Version | Text Only | Print | Product List | Glossary On
Versions: 1 2 3 4 5 6 7 8 9 10 11 12 13 14 15 16 17 18 19 20 21 22 23 24 25 26 27 28 29 30 31 32 33 34 35 36 37 38 39 40 41 42 43 44 45 46 47 48 49 50
761
AXUS43 KLBF 122210
MISLBF


WESTERN AND NORTH CENTRAL NEBRASKA HOURLY WEATHER ROUNDUP
NATIONAL WEATHER SERVICE NORTH PLATTE NE
400 PM CST TUE DEC 12 2017

NOTE: "FAIR" INDICATES FEW OR NO CLOUDS BELOW 12,000 FEET WITH NO
SIGNIFICANT WEATHER AND/OR OBSTRUCTIONS TO VISIBILITY.

NOTE: STATIONS NOT REPORTING VARIABLES SUCH AS SKY/WEATHER OR
PRESSURE ARE PROVIDED BY RAWS AND APRS NETWORKS AND ARE NOT UNDER
NATIONAL WEATHER SERVICE QUALITY CONTROL.

...OBSERVATIONS IN AND NEAR THE EASTERN PANHANDLE OF NEBRASKA...

CITY           SKY/WX    TMP DP  RH WIND       PRES   REMARKS
PINE RIDGE     CLEAR     59  23  25 W9        30.00F
GORDON         FAIR      56  22  26 W9        30.00F
CHADRON        SUNNY     65  17  15 W17G26    30.00F
ALLIANCE       SUNNY     64  18  17 W13       30.03F
SIDNEY         SUNNY     64  15  15 NW20      30.10F
CRESCENT LAKE    N/A     64  17  16 W10         N/A
$$

...OBSERVATIONS IN NORTHERN NEBRASKA AND FAR SOUTHERN SOUTH DAKOTA...

CITY           SKY/WX    TMP DP  RH WIND       PRES   REMARKS
WINNER         FAIR      59  19  21 W8        29.93F
VALENTINE      CLEAR     61  19  19 W13       29.96F
THEDFORD       CLEAR     61  20  20 W10       30.00F
AINSWORTH      CLEAR     56  23  27 W8        29.97F
O`NEILL        CLEAR     53  21  29 SW9       29.97F
ORD            CLEAR     52  16  24 W8        30.00F
BROKEN BOW     CLEAR     54  20  26 SW9       30.02F
VALENTINE NWR    N/A     59  17  19 W8          N/A
HALSEY           N/A     61  20  20 W6          N/A
BUTTE            N/A     52  22  30 SW9G17      N/A
CHAMBERS         N/A     51  24  35 SW3         N/A
EWING            N/A     49  24  37 SW9         N/A
$$

...OBSERVATIONS IN SOUTHWEST NEBRASKA AND FAR NORTHEAST COLORADO...

CITY           SKY/WX    TMP DP  RH WIND       PRES   REMARKS
WRAY           FAIR      64  14  14 W8        30.11F
HOLYOKE        FAIR      68  18  14 NW8       30.10F
IMPERIAL       SUNNY     64  17  16 W7        30.07F
OGALLALA       SUNNY     64  17  16 W13       30.05F
NORTH PLATTE   SUNNY     59  21  23 W9        30.04F
MCCOOK         SUNNY     59  21  23 SW7       30.06F
LEXINGTON      SUNNY     57  20  24 SW8       30.05F
STAPLETON        N/A     60  22  23 CALM        N/A
GOTHENBURG       N/A     59  20  22 CALM        N/A
CALLAWAY         N/A     54  26  33 SW10        N/A
$$

...OBSERVATIONS IN CENTRAL LINCOLN COUNTY AREA...

CITY           SKY/WX    TMP DP  RH WIND       PRES   REMARKS
N.P. AIRPORT   SUNNY     59  21  23 W9        30.04F
N.P. DOWNTOWN    N/A     58  25  28 CALM        N/A
N.P. SOUTHEAST   N/A     59  24  26 W3          N/A
N.P. HILLCREST   N/A     58  25  28 W8          N/A
$$

...SOME OBSERVATIONS FROM AROUND THE REGION...

CITY           SKY/WX    TMP DP  RH WIND       PRES   REMARKS
DENVER         MOSUNNY   68  13  12 N7        30.17F
GRAND JUNCTION SUNNY     53  13  20 W3        30.37F
LARAMIE        SUNNY     54   9  16 W16       30.26F
CHEYENNE       SUNNY     59   9  13 NW24G37   30.19F
CASPER         SUNNY     47  19  33 SW21      30.19F
BISMARCK       CLEAR     53  26  35 W9        29.77F
RAPID CITY     CLEAR     59  15  18 S8        29.96F
PIERRE         CLEAR     54  27  35 W9        29.87F
SIOUX FALLS    PTCLDY    41  30  65 SW9       29.92F
OMAHA          PTCLDY    41  25  53 S7        30.08F
GRAND ISLAND   CLEAR     52  17  25 W9        30.05F
SCOTTSBLUFF    SUNNY     64  16  15 W14       30.07F
KANSAS CITY    PTCLDY    39  21  48 W7        30.16F WCI  34
HILL CITY      SUNNY     61  18  18 W7        30.10F
WICHITA        SUNNY     54  27  35 SW12      30.18F
DODGE CITY     SUNNY     61  14  16 W13       30.15F
OKLAHOMA CITY  MOSUNNY   49  26  41 NW8       30.27F
DALLAS         SUNNY     57  24  28 N12       30.28F
AMARILLO       SUNNY     62  11  13 W16G23    30.24F
$$




USA.gov is the U.S. government's official web portal to all federal, state and local government web resources and services.